Weather History for Alexandria, LA

Change the Weather History Date:

Saturday, January 4, 2003

  Actual Average Record
Temperature  
Mean Temperature 48 °F 49 °F  
Max Temperature 64 °F 59 °F 81 °F (1989)
Min Temperature 32 °F 39 °F 11 °F (1911)
Degree Days  
Heating Degree Days 17 16  
Month to date heating degree days 64  
Since 1 July heating degree days 853  
Moisture  
Dew Point 40 °F    
Average Humidity 78    
Maximum Humidity 100    
Minimum Humidity 48    
Precipitation  
Precipitation 0.00 in 0.17 in 2.25 in (2007)
Month to date precipitation 0.58  
Year to date precipitation 0.58  
Snow  
Snow 0.00 in - 0.00 in ()
Month to date snowfall  
Since 1 July snowfall  
Snow Depth -    
Sea Level Pressure  
Sea Level Pressure 30.17 in    
Wind  
Wind Speed 5 mph (South)    
Max Wind Speed 12 mph    
Max Gust Speed -    
Visibility 10 miles    
Events      
T = Trace of Precipitation, MM = Missing Value Source: NWS Daily Summary

Daily Weather History Graph

Daily Weather History Graph

Search for Another Location

Airport:

Trip Planner

Search our weather history database for the weather conditions in past years. The results will help you decide how hot, cold, wet, or windy it might be!

Date:

Astronomy

Jan. 04, 2003 Rise Set
Actual Time 7:09 AM CST 5:20 PM CST
Civil Twilight 6:43 AM CST 5:47 PM CST
Nautical Twilight 6:13 AM CST 6:17 PM CST
Astronomical Twilight 5:43 AM CST 6:46 PM CST
Moon 8:54 AM CST (1/4) 7:19 PM CST (1/4)
Length of Visible Light 11h 04m
Length of Day
10h 10m
Waxing Crescent, 4% of the Moon is Illuminated
Jan 4
Waxing Crescent
Jan 10
First Quarter
Jan 18
Full
Jan 25
Last Quarter
Feb 1
New

Hourly Weather History & Observations

Time (CST) Temp. Windchill Dew Point Humidity Pressure Visibility Wind Dir Wind Speed Gust Speed Precip Events Conditions
12:53 AM 34.0 °F - 33.1 °F 96% 30.21 in 10.0 mi Calm Calm - N/A   Clear
1:53 AM 33.1 °F - 32.0 °F 96% 30.21 in 10.0 mi Calm Calm - N/A   Clear
2:53 AM 32.0 °F 28.7 °F 32.0 °F 100% 30.22 in 10.0 mi SE 3.5 mph - N/A   Clear
3:53 AM 33.1 °F 28.7 °F 32.0 °F 96% 30.22 in 9.0 mi ESE 4.6 mph - N/A   Clear
4:53 AM 32.0 °F 27.5 °F 32.0 °F 100% 30.21 in 10.0 mi ESE 4.6 mph - N/A   Clear
5:53 AM 32.0 °F 27.5 °F 30.9 °F 96% 30.22 in 8.0 mi ESE 4.6 mph - N/A   Clear
6:53 AM 32.0 °F 26.4 °F 32.0 °F 100% 30.23 in 10.0 mi SE 5.8 mph - N/A   Clear
7:53 AM 34.0 °F 28.8 °F 33.1 °F 96% 30.23 in 10.0 mi SE 5.8 mph - N/A   Clear
8:53 AM 41.0 °F 35.8 °F 37.9 °F 89% 30.25 in 10.0 mi SSE 8.1 mph - N/A   Clear
9:53 AM 46.9 °F - 39.9 °F 77% 30.26 in 10.0 mi SSE 6.9 mph - N/A   Clear
10:53 AM 53.1 °F - 42.1 °F 66% 30.23 in 10.0 mi SSE 6.9 mph - N/A   Clear
11:53 AM 59.0 °F - 43.0 °F 55% 30.19 in 10.0 mi SSW 9.2 mph - N/A   Clear
12:53 PM 62.1 °F - 44.1 °F 52% 30.14 in 10.0 mi SW 11.5 mph - N/A   Clear
1:53 PM 63.0 °F - 44.1 °F 50% 30.13 in 10.0 mi SSW 10.4 mph - N/A   Clear
2:53 PM 64.0 °F - 44.1 °F 48% 30.12 in 10.0 mi SW 9.2 mph - N/A   Clear
3:53 PM 64.0 °F - 46.0 °F 52% 30.10 in 10.0 mi SSW 9.2 mph - N/A   Clear
4:53 PM 60.1 °F - 46.0 °F 60% 30.09 in 10.0 mi SSW 6.9 mph - N/A   Clear
5:53 PM 55.9 °F - 45.0 °F 67% 30.10 in 10.0 mi South 5.8 mph - N/A   Clear
6:53 PM 55.9 °F - 46.0 °F 69% 30.10 in 10.0 mi South 8.1 mph - N/A   Clear
7:53 PM 53.1 °F - 46.9 °F 80% 30.12 in 10.0 mi SSW 11.5 mph - N/A   Clear
8:53 PM 52.0 °F - 46.0 °F 80% 30.12 in 10.0 mi SSW 9.2 mph - N/A   Clear
9:53 PM 50.0 °F - 45.0 °F 83% 30.12 in 10.0 mi SSW 9.2 mph - N/A   Clear
10:53 PM 50.0 °F - 45.0 °F 83% 30.12 in 10.0 mi SW 8.1 mph - N/A   Clear
11:53 PM 48.9 °F - 45.0 °F 86% 30.12 in 10.0 mi SW 8.1 mph - N/A   Clear